Погода в Ессее

Россия / Красноярский край     68°27′48″N   102°11′14″E
темп.,
°C
ветер,
м/с
пор.,
м/с
влажн.,
%
обл.,
%
осадки,
мм/ч
давл.,
гПа
погр.,
м
10 мая, пн
пн1001:00−2ссв5784100 0.1 1029550
04:00−4с68757 0.0 1031451
07:00−3с67645 0.0 1031598
10:00−1ссв66545 0.0 1031829
13:00+1ссв665263 0.0 10311091
16:00+1ссв555193 0.0 10321227
19:00+1ссв655693 0.0 10321087
22:00−1ссв467175 0.0 1033382
11 мая, вт
вт1101:00−2ссв34785 0.0 1034380
04:00−3ссв22795 0.0 1034267
07:00−2вюв11685 0.0 1033479
10:00+1ю22535 0.0 1031786
13:00+4ююз444411 0.0 10291051
16:00+5ю443998 0.0 10271145
19:00+6ю553798 0.0 10251120
22:00+3ю355565 0.0 102487
12 мая, ср
ср1201:00+1ю3568100 0.0 102382
04:000ю477189 0.0 1021158
07:00+2ю576163 0.0 1020441
10:00+6ююз6649100 0.0 1017801
13:00+8ююз6639100 0.0 10151013
16:00+9ююз5635100 0.0 10121122
19:00+9зюз3337100 0.0 10111025
22:00+6ссз4550100 0.0 1009217
13 мая, чт
чт1301:00+5зсз2355100 0.0 100888
04:00+4зюз4678100 0.1 1007554
07:00+2ссз4699100 1.7 1007315
10:00+2с7878100 0.5 1008732
13:00+3ссв5559100 0.5 10071079
16:00+4ссв5453100 0.0 10061187
19:00+3св5458100 0.0 1006925
22:00+1св5672100 0.0 1005636
14 мая, пт
пт1401:00−1св6888100 0.1 1004411
04:00−1всв7983100 0.3 1003553
07:00−1св6892100 2.1 1002531
10:000ссв6898100 3.6 1001512
13:000с89100100 7.4 1000522
16:00−1ссз101499100 5.4 1001716
19:00−2ссз111595100 10.4 1002711
22:00−3ссз10169498 3.1 1003600